| time (UTC) | temp C | wind direction | speed KPH | gust KPH | rain 1hr cm | rain 24hr cm | rain mn cm | humidity % | barometer mb |
| 20260502201531 | 21 | 177 | 3.2 | 14.5 | 0.00 | 0.00 | 0.00 | 61 | 1013.0 |
| 20260502200023 | 20 | 198 | 6.4 | 17.7 | 0.00 | 0.00 | 0.00 | 63 | 1013.1 |
| 20260502194519 | 18 | 212 | 8.0 | 19.3 | 0.00 | 0.00 | 0.00 | 66 | 1013.2 |
| 20260502193018 | 18 | 250 | 4.8 | 16.1 | 0.00 | 0.00 | 0.00 | 67 | 1013.4 |
| 20260502191515 | 18 | 168 | 6.4 | 22.5 | 0.00 | 0.00 | 0.00 | 68 | 1013.4 |
| 20260502190012 | 17 | 148 | 6.4 | 19.3 | 0.00 | 0.00 | 0.00 | 70 | 1013.5 |
| 20260502184509 | 16 | 157 | 6.4 | 16.1 | 0.00 | 0.00 | 0.00 | 71 | 1013.5 |
| 20260502183006 | 16 | 169 | 3.2 | 17.7 | 0.00 | 0.00 | 0.00 | 73 | 1013.4 |
| 20260502181507 | 16 | 135 | 6.4 | 17.7 | 0.00 | 0.00 | 0.00 | 74 | 1013.5 |
| 20260502163055 | 15 | 199 | 4.8 | 16.1 | 0.00 | 0.00 | 0.00 | 77 | 1013.2 |
| 20260502161621 | 15 | 178 | 9.7 | 25.7 | 0.00 | 0.00 | 0.00 | 75 | 1013.2 |
| 20260502160116 | 15 | 140 | 9.7 | 22.5 | 0.00 | 0.00 | 0.00 | 75 | 1013.0 |
| 20260502151551 | 15 | 244 | 4.8 | 14.5 | 0.00 | 0.00 | 0.00 | 75 | 1012.8 |
| 20260502123106 | 12 | 166 | 4.8 | 12.9 | 0.00 | 0.00 | 0.00 | 81 | 1011.5 |
| 20260502121529 | 12 | 142 | 3.2 | 8.0 | 0.00 | 0.00 | 0.00 | 81 | 1011.4 |
| 20260502114526 | 12 | 159 | 8.0 | 16.1 | 0.00 | 0.00 | 0.00 | 80 | 1011.4 |
| 20260502113025 | 12 | 150 | 4.8 | 11.3 | 0.00 | 0.00 | 0.00 | 80 | 1011.5 |
| 20260502111529 | 12 | 129 | 3.2 | 11.3 | 0.00 | 0.00 | 0.00 | 79 | 1011.5 |
| 20260502110021 | 13 | 120 | 4.8 | 12.9 | 0.00 | 0.00 | 0.00 | 78 | 1011.5 |
| 20260502104519 | 13 | 146 | 3.2 | 14.5 | 0.00 | 0.00 | 0.00 | 78 | 1011.5 |
| 20260502103018 | 13 | 152 | 3.2 | 14.5 | 0.00 | 0.00 | 0.00 | 77 | 1011.7 |
| 20260502101515 | 13 | 177 | 4.8 | 9.7 | 0.00 | 0.00 | 0.00 | 77 | 1011.8 |
| 20260502091508 | 13 | 135 | 3.2 | 11.3 | 0.00 | 0.00 | 0.00 | 77 | 1011.9 |
| 20260502070046 | 16 | 116 | 6.4 | 12.9 | 0.00 | 0.00 | 0.00 | 73 | 1012.1 |
| 20260502064547 | 16 | 128 | 6.4 | 14.5 | 0.00 | 0.00 | 0.00 | 73 | 1012.0 |
| 20260502063054 | 16 | 144 | 3.2 | 11.3 | 0.00 | 0.00 | 0.00 | 73 | 1011.8 |
| 20260502061542 | 16 | 123 | 4.8 | 14.5 | 0.00 | 0.00 | 0.00 | 72 | 1011.9 |
| 20260502060040 | 17 | 126 | 3.2 | 14.5 | 0.00 | 0.00 | 0.00 | 72 | 1012.0 |
| 20260502054538 | 17 | 132 | 4.8 | 11.3 | 0.00 | 0.00 | 0.00 | 72 | 1011.9 |
| 20260502053038 | 18 | 182 | 4.8 | 14.5 | 0.00 | 0.00 | 0.00 | 70 | 1012.0 |
| 20260502051534 | 18 | 115 | 3.2 | 11.3 | 0.00 | 0.00 | 0.00 | 70 | 1011.9 |
| 20260502050034 | 18 | 158 | 1.6 | 14.5 | 0.00 | 0.00 | 0.00 | 69 | 1011.9 |
| 20260502044523 | 19 | 150 | 4.8 | 12.9 | 0.00 | 0.00 | 0.00 | 67 | 1011.8 |
| 20260502043020 | 20 | 197 | 3.2 | 16.1 | 0.00 | 0.00 | 0.00 | 66 | 1011.7 |
| 20260502041524 | 20 | 182 | 4.8 | 12.9 | 0.00 | 0.00 | 0.00 | 64 | 1011.5 |
| 20260502040014 | 21 | 171 | 1.6 | 16.1 | 0.00 | 0.00 | 0.00 | 63 | 1011.5 |
| 20260502034512 | 22 | 141 | 4.8 | 16.1 | 0.00 | 0.00 | 0.00 | 61 | 1011.1 |
| 20260502033015 | 22 | 217 | 3.2 | 14.5 | 0.00 | 0.00 | 0.00 | 60 | 1011.0 |
| 20260502031503 | 23 | 153 | 3.2 | 9.7 | 0.00 | 0.00 | 0.00 | 60 | 1010.8 |
| 20260502030059 | 23 | 161 | 4.8 | 12.9 | 0.00 | 0.00 | 0.00 | 57 | 1010.7 |
| 20260502024610 | 25 | 74 | 3.2 | 9.7 | 0.00 | 0.00 | 0.00 | 52 | 1010.8 |
| 20260502023052 | 25 | 168 | 4.8 | 12.9 | 0.00 | 0.00 | 0.00 | 49 | 1010.7 |
| 20260502021553 | 26 | 164 | 1.6 | 11.3 | 0.00 | 0.00 | 0.00 | 49 | 1010.6 |
| 20260502020047 | 26 | 184 | 1.6 | 9.7 | 0.00 | 0.00 | 0.00 | 49 | 1010.6 |
| 20260502014543 | 27 | 280 | 1.6 | 9.7 | 0.00 | 0.00 | 0.00 | 46 | 1010.6 |
| 20260502013039 | 28 | 172 | 1.6 | 8.0 | 0.00 | 0.00 | 0.00 | 44 | 1010.6 |
| 20260502011539 | 28 | 159 | 3.2 | 11.3 | 0.00 | 0.00 | 0.00 | 42 | 1010.6 |
| 20260502010048 | 28 | 180 | 1.6 | 6.4 | 0.00 | 0.00 | 0.00 | 42 | 1010.8 |
| 20260502004552 | 28 | 162 | 0.0 | 9.7 | 0.00 | 0.00 | 0.00 | 42 | 1010.9 |
| 20260502003031 | 29 | 130 | 4.8 | 16.1 | 0.00 | 0.00 | 0.00 | 40 | 1011.0 |
| 20260502001534 | 30 | 178 | 4.8 | 14.5 | 0.00 | 0.00 | 0.00 | 40 | 1010.9 |
| 20260502000031 | 30 | 137 | 4.8 | 12.9 | 0.00 | 0.00 | 0.00 | 41 | 1011.0 |
| 20260501234526 | 30 | 128 | 1.6 | 14.5 | 0.00 | 0.00 | 0.00 | 42 | 1011.1 |
| 20260501233022 | 30 | 182 | 6.4 | 9.7 | 0.00 | 0.00 | 0.00 | 40 | 1011.2 |
| 20260501230002 | 30 | 215 | 1.6 | 6.4 | 0.00 | 0.00 | 0.00 | 40 | 1011.5 |
| 20260501224501 | 30 | 173 | 1.6 | 16.1 | 0.00 | 0.00 | 0.00 | 42 | 1011.8 |
| 20260501223106 | 30 | 273 | 0.0 | 8.0 | 0.00 | 0.00 | 0.00 | 41 | 1012.1 |
| 20260501221559 | 30 | 196 | 1.6 | 9.7 | 0.00 | 0.00 | 0.00 | 42 | 1012.4 |
| 20260501220101 | 30 | 198 | 0.0 | 8.0 | 0.00 | 0.00 | 0.00 | 41 | 1012.6 |
| 20260501214551 | 29 | 265 | 0.0 | 11.3 | 0.00 | 0.00 | 0.00 | 42 | 1012.8 |
| 20260501213051 | 29 | 264 | 1.6 | 11.3 | 0.00 | 0.00 | 0.00 | 43 | 1013.0 |
| 20260501211545 | 28 | 254 | 3.2 | 8.0 | 0.00 | 0.00 | 0.00 | 44 | 1013.0 |
| 20260501210044 | 27 | 196 | 1.6 | 9.7 | 0.00 | 0.00 | 0.00 | 45 | 1013.1 |
| 20260501204539 | 27 | 265 | 1.6 | 12.9 | 0.00 | 0.00 | 0.00 | 46 | 1013.3 |
| 20260501203037 | 27 | 234 | 1.6 | 9.7 | 0.00 | 0.00 | 0.00 | 46 | 1013.5 |